Home > Weather > Jakobstad > Past weeks

Flag for Finland Weather for the Past 2 Weeks in Jakobstad, Finland

Now
38 °F

Overcast.


Feels Like: 33 °F
Forecast: 35 / 37 °F
Wind: 8 mph from South

Location: Kauhava

Current Time: Feb 8, 2016 at 5:05:26 PM

Latest Report: Feb 8, 2016 at 4:00 PM


Visibility: 16 mi

Pressure: 29.18 "Hg

Humidity: 89%

Dew point: 36 °F

Location of JakobstadLocation

Historic Weather in Jakobstad — Graph

°F

Jakobstad Temperature Yesterday

Maximum temperature yesterday: 39 °F (at 10:00 PM)
Minimum temperature yesterday: 35 °F (at 8:00 AM)
Average temperature yesterday: 37 °F

High & Low Weather Summary for the Past Weeks

 TemperatureHumidityPressure
High39 °F (Feb 7, 10:00 PM)100% (Jan 24, 8:00 PM)30.02 "Hg (Jan 24, 8:00 PM)
Low5 °F (Feb 4, 2:00 AM)75% (Jan 30, 11:00 AM)28.67 "Hg (Feb 2, 9:00 AM)
Average28 °F97%29.28 "Hg
* Reported Jan 24 3:00 PM — Feb 8 3:00 PM, Jakobstad, Weather by CustomWeather, © 2016

Note: Actual official high and low records may vary slightly from our data, if they occured in-between our weather recording intervals... More about our weather records

Advertising

Jakobstad Weather History for the Previous 24 Hours

 ConditionsComfort  
Time TempWeatherWind HumidityBarometerVisibility
3:00 PM
Mon, Feb 8
38 °FOvercast.7 mph90%29.21 "Hg13 mi
2:00 PM38 °FOvercast.N/A89%29.18 "Hg12 mi
1:00 PM38 °FOvercast.8 mph92%29.21 "Hg9 mi
12:00 PM39 °FOvercast.9 mph90%29.21 "Hg10 mi
11:00 AM39 °FOvercast.9 mph92%29.21 "Hg9 mi
10:00 AM38 °FLow clouds.9 mph94%29.21 "Hg11 mi
9:00 AM38 °FLow clouds.N/A94%29.21 "Hg11 mi
8:00 AM38 °FLow clouds.9 mph94%29.21 "Hg9 mi
7:00 AM38 °FLow clouds.8 mph95%29.21 "Hg7 mi
6:00 AM38 °FRain showers. Low clouds.9 mph95%29.23 "Hg4 mi
4:00 AM38 °FFog.9 mph94%29.23 "Hg6 mi
3:00 AM37 °FLow clouds.9 mph94%29.23 "Hg6 mi
1:00 AM38 °FLow clouds.9 mph93%29.29 "Hg9 mi
12:00 AM38 °FLow clouds.8 mph95%29.29 "Hg7 mi
11:00 PM
Sun, Feb 7
38 °FFog.9 mph95%29.29 "Hg6 mi
10:00 PM39 °FLow clouds.8 mph95%29.32 "Hg6 mi
9:00 PM39 °FLow clouds.7 mph94%29.32 "Hg7 mi
8:00 PM39 °FOvercast.6 mph94%29.35 "Hg6 mi
7:00 PM38 °FLow clouds.8 mph96%29.35 "Hg6 mi
6:00 PM38 °FFog.7 mph98%29.35 "Hg6 mi
5:00 PM38 °FLow clouds.7 mph98%29.38 "Hg7 mi
Weather by CustomWeather, © 2016

See weather overviewHow to use our weather pages